Portada
METAR-TAF:

METAR-TAF

Aeroports :

Richard I. Bong Airport

Superior, Wisconsin, Estats Units d'Amèrica

latitud: 46-41-23N, longitud: 092-05-41W, altitud: 205 m

Observació

L'informe es va fer fa 11 minuts, a les 12:35 UTC
Vent 9 kt del Oest
Temperatura 2°C
Humitat 80%
Pressió 1010 hPa
Visibilitat: 16.1 km
Cel clar

METAR: KSUW 161235Z AUTO 26009KT 10SM CLR 02/M01 A2983 RMK AO2 T00191015

Hora: 07:46 (12:46 UTC)


TAF: manca

Observacions i pronòstics meteorològics de més de 4000 aeroports (METAR i TAF).

Les estacions disponibles són els punts grocs i vermells al mapa.

Posi el ratolí al punt desitjat per veure el nom de l'estació.

Feu clic per veure les observacions i els pronòstics meteorològics.

Per canviar el mapa: feu clic els botons verds amb una creu de color negre per apropar; al botó verd amb un guió per allunyar la imatge; o en les fletxes verdes per a mapes adjacents.


METAR-TAF: